;"Summenlastgang aller Einspeisungen 
Umspannung HS/MS
+ Vorgelagertes Netz
+ dezentrale Erzeugung
+ R�ckspeisung aus MS-Ebene
- R�ckspeisung in UHM EWE"
Arbeit;271.569.233
H�chstleistung;76.641
Ab Zeit;07.12.2023 12:45
01.01.2023 00:00;5.438
01.01.2023 00:15;5.424
01.01.2023 00:30;5.261
01.01.2023 00:45;5.059
01.01.2023 01:00;4.824
01.01.2023 01:15;4.992
01.01.2023 01:30;5.290
01.01.2023 01:45;5.165
01.01.2023 02:00;5.150
01.01.2023 02:15;4.968
01.01.2023 02:30;4.733
01.01.2023 02:45;4.330
01.01.2023 03:00;4.579
01.01.2023 03:15;4.574
01.01.2023 03:30;4.670
01.01.2023 03:45;4.723
01.01.2023 04:00;4.819
01.01.2023 04:15;4.858
01.01.2023 04:30;5.035
01.01.2023 04:45;5.006
01.01.2023 05:00;4.872
01.01.2023 05:15;5.069
01.01.2023 05:30;5.107
01.01.2023 05:45;5.400
01.01.2023 06:00;5.347
01.01.2023 06:15;5.160
01.01.2023 06:30;5.640
01.01.2023 06:45;4.843
01.01.2023 07:00;4.886
01.01.2023 07:15;4.728
01.01.2023 07:30;4.430
01.01.2023 07:45;4.411
01.01.2023 08:00;4.694
01.01.2023 08:15;5.059
01.01.2023 08:30;4.579
01.01.2023 08:45;4.637
01.01.2023 09:00;4.632
01.01.2023 09:15;4.570
01.01.2023 09:30;4.699
01.01.2023 09:45;4.867
01.01.2023 10:00;4.589
01.01.2023 10:15;4.522
01.01.2023 10:30;4.358
01.01.2023 10:45;4.181
01.01.2023 11:00;4.181
01.01.2023 11:15;4.094
01.01.2023 11:30;3.773
01.01.2023 11:45;3.734
01.01.2023 12:00;3.749
01.01.2023 12:15;4.411
01.01.2023 12:30;7.771
01.01.2023 12:45;9.581
01.01.2023 13:00;9.551
01.01.2023 13:15;11.751
01.01.2023 13:30;14.570
01.01.2023 13:45;16.712
01.01.2023 14:00;14.164
01.01.2023 14:15;12.474
01.01.2023 14:30;10.678
01.01.2023 14:45;13.014
01.01.2023 15:00;13.366
01.01.2023 15:15;10.709
01.01.2023 15:30;7.301
01.01.2023 15:45;5.866
01.01.2023 16:00;5.379
01.01.2023 16:15;4.800
01.01.2023 16:30;6.144
01.01.2023 16:45;6.341
01.01.2023 17:00;6.336
01.01.2023 17:15;5.995
01.01.2023 17:30;10.829
01.01.2023 17:45;15.570
01.01.2023 18:00;15.396
01.01.2023 18:15;13.180
01.01.2023 18:30;10.313
01.01.2023 18:45;8.608
01.01.2023 19:00;10.090
01.01.2023 19:15;10.922
01.01.2023 19:30;12.325
01.01.2023 19:45;16.109
01.01.2023 20:00;22.328
01.01.2023 20:15;19.403
01.01.2023 20:30;18.258
01.01.2023 20:45;19.745
01.01.2023 21:00;18.138
01.01.2023 21:15;15.125
01.01.2023 21:30;11.939
01.01.2023 21:45;7.536
01.01.2023 22:00;8.506
01.01.2023 22:15;15.500
01.01.2023 22:30;18.404
01.01.2023 22:45;16.428
01.01.2023 23:00;21.572
01.01.2023 23:15;23.624
01.01.2023 23:30;25.127
01.01.2023 23:45;25.201
02.01.2023 00:00;25.056
02.01.2023 00:15;25.109
02.01.2023 00:30;24.154
02.01.2023 00:45;22.276
02.01.2023 01:00;20.458
02.01.2023 01:15;20.903
02.01.2023 01:30;20.386
02.01.2023 01:45;21.483
02.01.2023 02:00;20.903
02.01.2023 02:15;19.714
02.01.2023 02:30;19.522
02.01.2023 02:45;18.032
02.01.2023 03:00;17.295
02.01.2023 03:15;15.008
02.01.2023 03:30;10.957
02.01.2023 03:45;11.108
02.01.2023 04:00;11.731
02.01.2023 04:15;10.819
02.01.2023 04:30;11.309
02.01.2023 04:45;11.448
02.01.2023 05:00;10.608
02.01.2023 05:15;10.190
02.01.2023 05:30;10.214
02.01.2023 05:45;10.602
02.01.2023 06:00;17.286
02.01.2023 06:15;16.786
02.01.2023 06:30;15.313
02.01.2023 06:45;23.037
02.01.2023 07:00;24.096
02.01.2023 07:15;21.876
02.01.2023 07:30;23.563
02.01.2023 07:45;18.801
02.01.2023 08:00;20.131
02.01.2023 08:15;24.514
02.01.2023 08:30;21.066
02.01.2023 08:45;17.089
02.01.2023 09:00;17.217
02.01.2023 09:15;14.894
02.01.2023 09:30;14.544
02.01.2023 09:45;15.125
02.01.2023 10:00;15.322
02.01.2023 10:15;17.727
02.01.2023 10:30;22.368
02.01.2023 10:45;22.340
02.01.2023 11:00;24.186
02.01.2023 11:15;29.158
02.01.2023 11:30;33.959
02.01.2023 11:45;36.063
02.01.2023 12:00;34.973
02.01.2023 12:15;37.734
02.01.2023 12:30;38.402
02.01.2023 12:45;46.552
02.01.2023 13:00;49.989
02.01.2023 13:15;45.949
02.01.2023 13:30;42.550
02.01.2023 13:45;41.402
02.01.2023 14:00;40.268
02.01.2023 14:15;42.987
02.01.2023 14:30;43.677
02.01.2023 14:45;40.843
02.01.2023 15:00;39.574
02.01.2023 15:15;43.138
02.01.2023 15:30;45.458
02.01.2023 15:45;40.511
02.01.2023 16:00;40.146
02.01.2023 16:15;41.533
02.01.2023 16:30;46.558
02.01.2023 16:45;44.822
02.01.2023 17:00;42.206
02.01.2023 17:15;41.298
02.01.2023 17:30;39.660
02.01.2023 17:45;39.770
02.01.2023 18:00;39.595
02.01.2023 18:15;34.660
02.01.2023 18:30;31.500
02.01.2023 18:45;29.222
02.01.2023 19:00;31.996
02.01.2023 19:15;29.458
02.01.2023 19:30;24.777
02.01.2023 19:45;24.481
02.01.2023 20:00;23.522
02.01.2023 20:15;22.359
02.01.2023 20:30;21.853
02.01.2023 20:45;19.125
02.01.2023 21:00;17.910
02.01.2023 21:15;16.968
02.01.2023 21:30;14.135
02.01.2023 21:45;15.796
02.01.2023 22:00;14.398
02.01.2023 22:15;14.675
02.01.2023 22:30;14.885
02.01.2023 22:45;13.370
02.01.2023 23:00;12.614
02.01.2023 23:15;11.688
02.01.2023 23:30;10.723
02.01.2023 23:45;9.638
03.01.2023 00:00;9.686
03.01.2023 00:15;9.350
03.01.2023 00:30;9.974
03.01.2023 00:45;10.104
03.01.2023 01:00;14.026
03.01.2023 01:15;13.502
03.01.2023 01:30;15.562
03.01.2023 01:45;15.782
03.01.2023 02:00;18.386
03.01.2023 02:15;17.766
03.01.2023 02:30;18.725
03.01.2023 02:45;17.083
03.01.2023 03:00;17.962
03.01.2023 03:15;19.210
03.01.2023 03:30;19.109
03.01.2023 03:45;17.779
03.01.2023 04:00;17.098
03.01.2023 04:15;16.982
03.01.2023 04:30;18.202
03.01.2023 04:45;18.235
03.01.2023 05:00;18.274
03.01.2023 05:15;20.198
03.01.2023 05:30;19.142
03.01.2023 05:45;19.488
03.01.2023 06:00;24.769
03.01.2023 06:15;26.258
03.01.2023 06:30;32.430
03.01.2023 06:45;37.282
03.01.2023 07:00;36.087
03.01.2023 07:15;42.566
03.01.2023 07:30;45.093
03.01.2023 07:45;44.685
03.01.2023 08:00;47.678
03.01.2023 08:15;48.105
03.01.2023 08:30;47.824
03.01.2023 08:45;46.663
03.01.2023 09:00;46.171
03.01.2023 09:15;46.160
03.01.2023 09:30;44.743
03.01.2023 09:45;47.142
03.01.2023 10:00;47.932
03.01.2023 10:15;49.570
03.01.2023 10:30;50.347
03.01.2023 10:45;51.480
03.01.2023 11:00;54.995
03.01.2023 11:15;55.774
03.01.2023 11:30;54.879
03.01.2023 11:45;58.253
03.01.2023 12:00;59.839
03.01.2023 12:15;59.175
03.01.2023 12:30;58.707
03.01.2023 12:45;59.522
03.01.2023 13:00;59.754
03.01.2023 13:15;59.633
03.01.2023 13:30;58.709
03.01.2023 13:45;57.796
03.01.2023 14:00;56.758
03.01.2023 14:15;59.718
03.01.2023 14:30;60.708
03.01.2023 14:45;59.824
03.01.2023 15:00;58.791
03.01.2023 15:15;58.962
03.01.2023 15:30;58.895
03.01.2023 15:45;57.501
03.01.2023 16:00;51.944
03.01.2023 16:15;49.809
03.01.2023 16:30;47.108
03.01.2023 16:45;46.674
03.01.2023 17:00;46.655
03.01.2023 17:15;47.977
03.01.2023 17:30;46.762
03.01.2023 17:45;44.719
03.01.2023 18:00;44.265
03.01.2023 18:15;42.971
03.01.2023 18:30;39.862
03.01.2023 18:45;39.669
03.01.2023 19:00;37.150
03.01.2023 19:15;32.277
03.01.2023 19:30;33.171
03.01.2023 19:45;31.046
03.01.2023 20:00;26.187
03.01.2023 20:15;19.990
03.01.2023 20:30;19.845
03.01.2023 20:45;18.167
03.01.2023 21:00;16.035
03.01.2023 21:15;20.707
03.01.2023 21:30;19.096
03.01.2023 21:45;17.951
03.01.2023 22:00;17.568
03.01.2023 22:15;17.155
03.01.2023 22:30;16.603
03.01.2023 22:45;15.878
03.01.2023 23:00;15.547
03.01.2023 23:15;16.166
03.01.2023 23:30;16.147
03.01.2023 23:45;16.339
04.01.2023 00:00;16.934
04.01.2023 00:15;15.902
04.01.2023 00:30;15.562
04.01.2023 00:45;15.187
04.01.2023 01:00;15.346
04.01.2023 01:15;15.830
04.01.2023 01:30;15.835
04.01.2023 01:45;15.720
04.01.2023 02:00;15.533
04.01.2023 02:15;15.533
04.01.2023 02:30;15.331
04.01.2023 02:45;15.408
04.01.2023 03:00;15.302
04.01.2023 03:15;14.832
04.01.2023 03:30;15.509
04.01.2023 03:45;15.293
04.01.2023 04:00;15.590
04.01.2023 04:15;16.296
04.01.2023 04:30;16.517
04.01.2023 04:45;16.061
04.01.2023 05:00;15.816
04.01.2023 05:15;16.282
04.01.2023 05:30;17.136
04.01.2023 05:45;18.043
04.01.2023 06:00;18.898
04.01.2023 06:15;19.613
04.01.2023 06:30;19.546
04.01.2023 06:45;19.891
04.01.2023 07:00;20.093
04.01.2023 07:15;21.005
04.01.2023 07:30;21.581
04.01.2023 07:45;22.066
04.01.2023 08:00;22.978
04.01.2023 08:15;22.925
04.01.2023 08:30;22.848
04.01.2023 08:45;22.853
04.01.2023 09:00;22.426
04.01.2023 09:15;23.914
04.01.2023 09:30;23.070
04.01.2023 09:45;21.456
04.01.2023 10:00;22.219
04.01.2023 10:15;22.862
04.01.2023 10:30;23.170
04.01.2023 10:45;23.455
04.01.2023 11:00;23.396
04.01.2023 11:15;23.641
04.01.2023 11:30;23.074
04.01.2023 11:45;23.222
04.01.2023 12:00;23.356
04.01.2023 12:15;23.383
04.01.2023 12:30;19.426
04.01.2023 12:45;19.825
04.01.2023 13:00;17.254
04.01.2023 13:15;16.144
04.01.2023 13:30;17.642
04.01.2023 13:45;20.693
04.01.2023 14:00;19.546
04.01.2023 14:15;21.044
04.01.2023 14:30;19.062
04.01.2023 14:45;18.241
04.01.2023 15:00;17.722
04.01.2023 15:15;18.259
04.01.2023 15:30;16.578
04.01.2023 15:45;15.173
04.01.2023 16:00;14308,8
04.01.2023 16:15;15067,2
04.01.2023 16:30;13924,8
04.01.2023 16:45;16153,6
04.01.2023 17:00;17034
04.01.2023 17:15;16363,6
04.01.2023 17:30;17416
04.01.2023 17:45;15248
04.01.2023 18:00;15.256
04.01.2023 18:15;14.301
04.01.2023 18:30;14926,8
04.01.2023 18:45;12807,2
04.01.2023 19:00;12686,4
04.01.2023 19:15;12768
04.01.2023 19:30;12571,2
04.01.2023 19:45;12513,6
04.01.2023 20:00;12393,6
04.01.2023 20:15;12240
04.01.2023 20:30;12019,2
04.01.2023 20:45;12336
04.01.2023 21:00;12091,2
04.01.2023 21:15;11966,4
04.01.2023 21:30;11.678
04.01.2023 21:45;11.707
04.01.2023 22:00;11.290
04.01.2023 22:15;11.928
04.01.2023 22:30;11.914
04.01.2023 22:45;11.290
04.01.2023 23:00;11.021
04.01.2023 23:15;10.963
04.01.2023 23:30;10.738
04.01.2023 23:45;10.829
05.01.2023 00:00;10.608
05.01.2023 00:15;10.786
05.01.2023 00:30;12.346
05.01.2023 00:45;12.389
05.01.2023 01:00;11.314
05.01.2023 01:15;11.861
05.01.2023 01:30;11.126
05.01.2023 01:45;10.483
05.01.2023 02:00;10.570
05.01.2023 02:15;10.550
05.01.2023 02:30;10.454
05.01.2023 02:45;10.507
05.01.2023 03:00;10.742
05.01.2023 03:15;10.234
05.01.2023 03:30;10.147
05.01.2023 03:45;9.898
05.01.2023 04:00;10.056
05.01.2023 04:15;10.286
05.01.2023 04:30;10.488
05.01.2023 04:45;11.083
05.01.2023 05:00;11.501
05.01.2023 05:15;11.909
05.01.2023 05:30;12.029
05.01.2023 05:45;14.011
05.01.2023 06:00;19.210
05.01.2023 06:15;19.310
05.01.2023 06:30;19.728
05.01.2023 06:45;20.232
05.01.2023 07:00;20.938
05.01.2023 07:15;21.576
05.01.2023 07:30;21.797
05.01.2023 07:45;22.474
05.01.2023 08:00;22.642
05.01.2023 08:15;23.034
05.01.2023 08:30;22.310
05.01.2023 08:45;22.728
05.01.2023 09:00;23.143
05.01.2023 09:15;22.077
05.01.2023 09:30;14.142
05.01.2023 09:45;14.662
05.01.2023 10:00;19.476
05.01.2023 10:15;21.183
05.01.2023 10:30;20.716
05.01.2023 10:45;19.684
05.01.2023 11:00;21.343
05.01.2023 11:15;21.125
05.01.2023 11:30;19.524
05.01.2023 11:45;19.257
05.01.2023 12:00;22.638
05.01.2023 12:15;25.820
05.01.2023 12:30;30.561
05.01.2023 12:45;32.297
05.01.2023 13:00;31.200
05.01.2023 13:15;34.118
05.01.2023 13:30;33.880
05.01.2023 13:45;38.572
05.01.2023 14:00;40.229
05.01.2023 14:15;36.196
05.01.2023 14:30;38.441
05.01.2023 14:45;40.667
05.01.2023 15:00;41.886
05.01.2023 15:15;45.631
05.01.2023 15:30;46.411
05.01.2023 15:45;49.955
05.01.2023 16:00;47.867
05.01.2023 16:15;49.798
05.01.2023 16:30;52.278
05.01.2023 16:45;55.328
05.01.2023 17:00;58.385
05.01.2023 17:15;60.724
05.01.2023 17:30;62.180
05.01.2023 17:45;62.089
05.01.2023 18:00;59.625
05.01.2023 18:15;58.434
05.01.2023 18:30;56.576
05.01.2023 18:45;55.662
05.01.2023 19:00;53.670
05.01.2023 19:15;53.305
05.01.2023 19:30;51.928
05.01.2023 19:45;50919,2
05.01.2023 20:00;48.879
05.01.2023 20:15;46547,2
05.01.2023 20:30;42353,6
05.01.2023 20:45;38780,4
05.01.2023 21:00;37085,6
05.01.2023 21:15;36670
05.01.2023 21:30;33691,6
05.01.2023 21:45;30672,8
05.01.2023 22:00;28726,8
05.01.2023 22:15;27236
05.01.2023 22:30;25890
05.01.2023 22:45;24045,6
05.01.2023 23:00;25.671
05.01.2023 23:15;25.211
05.01.2023 23:30;22.961
05.01.2023 23:45;19.788
06.01.2023 00:00;15.182
06.01.2023 00:15;13.680
06.01.2023 00:30;14.150
06.01.2023 00:45;15.072
06.01.2023 01:00;13.906
06.01.2023 01:15;13.718
06.01.2023 01:30;16.210
06.01.2023 01:45;17.126
06.01.2023 02:00;17.707
06.01.2023 02:15;17.458
06.01.2023 02:30;16.642
06.01.2023 02:45;16.406
06.01.2023 03:00;14.962
06.01.2023 03:15;14.539
06.01.2023 03:30;13.373
06.01.2023 03:45;12.187
06.01.2023 04:00;13.646
06.01.2023 04:15;12.854
06.01.2023 04:30;11.755
06.01.2023 04:45;10.598
06.01.2023 05:00;10.258
06.01.2023 05:15;10.118
06.01.2023 05:30;11.794
06.01.2023 05:45;11.717
06.01.2023 06:00;11.957
06.01.2023 06:15;12.158
06.01.2023 06:30;13.200
06.01.2023 06:45;14.112
06.01.2023 07:00;15.768
06.01.2023 07:15;17.006
06.01.2023 07:30;17.434
06.01.2023 07:45;18.144
06.01.2023 08:00;18.211
06.01.2023 08:15;18.269
06.01.2023 08:30;18.374
06.01.2023 08:45;18.192
06.01.2023 09:00;18.149
06.01.2023 09:15;18.034
06.01.2023 09:30;17.520
06.01.2023 09:45;17.467
06.01.2023 10:00;17.803
06.01.2023 10:15;17966,4
06.01.2023 10:30;19899,2
06.01.2023 10:45;22884,4
06.01.2023 11:00;25986,4
06.01.2023 11:15;27062,8
06.01.2023 11:30;26984
06.01.2023 11:45;24915,6
06.01.2023 12:00;23938,4
06.01.2023 12:15;24733,2
06.01.2023 12:30;20118,8
06.01.2023 12:45;16410,8
06.01.2023 13:00;18588,8
06.01.2023 13:15;21014
06.01.2023 13:30;26467,6
06.01.2023 13:45;25410
06.01.2023 14:00;23442,8
06.01.2023 14:15;18852,8
06.01.2023 14:30;18458,8
06.01.2023 14:45;16.436
06.01.2023 15:00;16764
06.01.2023 15:15;19299,2
06.01.2023 15:30;24531,2
06.01.2023 15:45;29274
06.01.2023 16:00;31124,8
06.01.2023 16:15;32129,2
06.01.2023 16:30;29352,8
06.01.2023 16:45;29246
06.01.2023 17:00;31135,6
06.01.2023 17:15;27940
06.01.2023 17:30;27158,4
06.01.2023 17:45;29559,6
06.01.2023 18:00;26.868
06.01.2023 18:15;24536
06.01.2023 18:30;22987,2
06.01.2023 18:45;26.181
06.01.2023 19:00;24774,4
06.01.2023 19:15;25771,6
06.01.2023 19:30;24838,4
06.01.2023 19:45;24862
06.01.2023 20:00;31.216
06.01.2023 20:15;30.155
06.01.2023 20:30;25.721
06.01.2023 20:45;25.731
06.01.2023 21:00;27.891
06.01.2023 21:15;25702,4
06.01.2023 21:30;22.268
06.01.2023 21:45;23.265
06.01.2023 22:00;15.191
06.01.2023 22:15;17.010
06.01.2023 22:30;17.092
06.01.2023 22:45;13.157
06.01.2023 23:00;11.587
06.01.2023 23:15;10.872
06.01.2023 23:30;10.747
06.01.2023 23:45;11.256
07.01.2023 00:00;9.514
07.01.2023 00:15;10.363
07.01.2023 00:30;9.648
07.01.2023 00:45;9.182
07.01.2023 01:00;9.514
07.01.2023 01:15;9.643
07.01.2023 01:30;8.587
07.01.2023 01:45;8.966
07.01.2023 02:00;8.606
07.01.2023 02:15;8.184
07.01.2023 02:30;8.261
07.01.2023 02:45;8.573
07.01.2023 03:00;8.587
07.01.2023 03:15;7.872
07.01.2023 03:30;7.790
07.01.2023 03:45;7.987
07.01.2023 04:00;7.421
07.01.2023 04:15;8.362
07.01.2023 04:30;7.565
07.01.2023 04:45;8.050
07.01.2023 05:00;7.963
07.01.2023 05:15;7.032
07.01.2023 05:30;6.912
07.01.2023 05:45;6.888
07.01.2023 06:00;7.205
07.01.2023 06:15;7.138
07.01.2023 06:30;6.979
07.01.2023 06:45;11.098
07.01.2023 07:00;16.404
07.01.2023 07:15;17.150
07.01.2023 07:30;20.791
07.01.2023 07:45;22.538
07.01.2023 08:00;25.824
07.01.2023 08:15;25.907
07.01.2023 08:30;23.491
07.01.2023 08:45;18.387
07.01.2023 09:00;18.700
07.01.2023 09:15;18.084
07.01.2023 09:30;15.170
07.01.2023 09:45;16.648
07.01.2023 10:00;19.625
07.01.2023 10:15;20.057
07.01.2023 10:30;22.982
07.01.2023 10:45;26.882
07.01.2023 11:00;27.022
07.01.2023 11:15;25.873
07.01.2023 11:30;24.592
07.01.2023 11:45;24.414
07.01.2023 12:00;25.496
07.01.2023 12:15;25.828
07.01.2023 12:30;24.627
07.01.2023 12:45;23.839
07.01.2023 13:00;23.711
07.01.2023 13:15;24.523
07.01.2023 13:30;23.656
07.01.2023 13:45;23.720
07.01.2023 14:00;23.206
07.01.2023 14:15;22.419
07.01.2023 14:30;21.485
07.01.2023 14:45;21.243
07.01.2023 15:00;22.001
07.01.2023 15:15;21.586
07.01.2023 15:30;21.008
07.01.2023 15:45;19.348
07.01.2023 16:00;18.220
07.01.2023 16:15;17.665
07.01.2023 16:30;8.028
07.01.2023 16:45;4.262
07.01.2023 17:00;4.249
07.01.2023 17:15;5.978
07.01.2023 17:30;3.792
07.01.2023 17:45;6.499
07.01.2023 18:00;7.550
07.01.2023 18:15;6.475
07.01.2023 18:30;6.360
07.01.2023 18:45;6.274
07.01.2023 19:00;6.288
07.01.2023 19:15;5.986
07.01.2023 19:30;6.269
07.01.2023 19:45;6.067
07.01.2023 20:00;6.293
07.01.2023 20:15;6.403
07.01.2023 20:30;6.576
07.01.2023 20:45;6.662
07.01.2023 21:00;6.749
07.01.2023 21:15;6.403
07.01.2023 21:30;6.312
07.01.2023 21:45;6.355
07.01.2023 22:00;6.394
07.01.2023 22:15;6.379
07.01.2023 22:30;6.034
07.01.2023 22:45;5.986
07.01.2023 23:00;5.962
07.01.2023 23:15;5.981
07.01.2023 23:30;6.365
07.01.2023 23:45;6.725
08.01.2023 00:00;6.816
08.01.2023 00:15;6.854
08.01.2023 00:30;6.902
08.01.2023 00:45;6.734
08.01.2023 01:00;6.979
08.01.2023 01:15;7.186
08.01.2023 01:30;7.008
08.01.2023 01:45;6.758
08.01.2023 02:00;6.749
08.01.2023 02:15;6.614
08.01.2023 02:30;6.475
08.01.2023 02:45;6.682
08.01.2023 03:00;6.552
08.01.2023 03:15;6.562
08.01.2023 03:30;7.786
08.01.2023 03:45;6.456
08.01.2023 04:00;7.248
08.01.2023 04:15;6.240
08.01.2023 04:30;6.566
08.01.2023 04:45;9.168
08.01.2023 05:00;12.499
08.01.2023 05:15;13.660
08.01.2023 05:30;12.823
08.01.2023 05:45;11.446
08.01.2023 06:00;12.576
08.01.2023 06:15;13.622
08.01.2023 06:30;13.546
08.01.2023 06:45;12.739
08.01.2023 07:00;11.851
08.01.2023 07:15;14.124
08.01.2023 07:30;15.570
08.01.2023 07:45;12.577
08.01.2023 08:00;11.721
08.01.2023 08:15;9.922
08.01.2023 08:30;9.418
08.01.2023 08:45;15.688
08.01.2023 09:00;14.620
08.01.2023 09:15;14.384
08.01.2023 09:30;18.202
08.01.2023 09:45;15.992
08.01.2023 10:00;18.259
08.01.2023 10:15;20.077
08.01.2023 10:30;22.803
08.01.2023 10:45;22.414
08.01.2023 11:00;23.290
08.01.2023 11:15;23.057
08.01.2023 11:30;23.417
08.01.2023 11:45;25.524
08.01.2023 12:00;28.693
08.01.2023 12:15;29.448
08.01.2023 12:30;30.378
08.01.2023 12:45;28.812
08.01.2023 13:00;27.290
08.01.2023 13:15;26.725
08.01.2023 13:30;27.502
08.01.2023 13:45;24.291
08.01.2023 14:00;23.245
08.01.2023 14:15;23.529
08.01.2023 14:30;24.562
08.01.2023 14:45;21.564
08.01.2023 15:00;14.856
08.01.2023 15:15;13.784
08.01.2023 15:30;19.492
08.01.2023 15:45;26.906
08.01.2023 16:00;29.962
08.01.2023 16:15;29.498
08.01.2023 16:30;27.948
08.01.2023 16:45;27.432
08.01.2023 17:00;27.633
08.01.2023 17:15;34.655
08.01.2023 17:30;35.476
08.01.2023 17:45;33.862
08.01.2023 18:00;35.250
08.01.2023 18:15;37.926
08.01.2023 18:30;39.925
08.01.2023 18:45;36.606
08.01.2023 19:00;31.364
08.01.2023 19:15;30.185
08.01.2023 19:30;28.038
08.01.2023 19:45;23.112
08.01.2023 20:00;21.811
08.01.2023 20:15;21.164
08.01.2023 20:30;17.911
08.01.2023 20:45;14.837
08.01.2023 21:00;15.163
08.01.2023 21:15;14.800
08.01.2023 21:30;15.890
08.01.2023 21:45;13.207
08.01.2023 22:00;13.448
08.01.2023 22:15;9.789
08.01.2023 22:30;7.114
08.01.2023 22:45;6.269
08.01.2023 23:00;7.214
08.01.2023 23:15;6.614
08.01.2023 23:30;5.870
08.01.2023 23:45;5.342
09.01.2023 00:00;4.838
09.01.2023 00:15;5.184
09.01.2023 00:30;4.877
09.01.2023 00:45;5.674
09.01.2023 01:00;5.990
09.01.2023 01:15;3.605
09.01.2023 01:30;3.830
09.01.2023 01:45;4.853
09.01.2023 02:00;5.501
09.01.2023 02:15;7.982
09.01.2023 02:30;9.058
09.01.2023 02:45;9.509
09.01.2023 03:00;11.314
09.01.2023 03:15;9.590
09.01.2023 03:30;9.350
09.01.2023 03:45;8.270
09.01.2023 04:00;7.901
09.01.2023 04:15;10.068
09.01.2023 04:30;15.322
09.01.2023 04:45;16.398
09.01.2023 05:00;21.963
09.01.2023 05:15;31.811
09.01.2023 05:30;37.172
09.01.2023 05:45;39.984
09.01.2023 06:00;40.377
09.01.2023 06:15;35.973
09.01.2023 06:30;35.624
09.01.2023 06:45;38.246
09.01.2023 07:00;40.291
09.01.2023 07:15;38.071
09.01.2023 07:30;34.882
09.01.2023 07:45;36.649
09.01.2023 08:00;40.005
09.01.2023 08:15;43.906
09.01.2023 08:30;45.232
09.01.2023 08:45;43.968
09.01.2023 09:00;37.196
09.01.2023 09:15;33.785
09.01.2023 09:30;38.595
09.01.2023 09:45;40.984
09.01.2023 10:00;47.169
09.01.2023 10:15;48.263
09.01.2023 10:30;49.418
09.01.2023 10:45;48.964
09.01.2023 11:00;54.430
09.01.2023 11:15;56.296
09.01.2023 11:30;55.929
09.01.2023 11:45;59.934
09.01.2023 12:00;63.533
09.01.2023 12:15;65.697
09.01.2023 12:30;66.712
09.01.2023 12:45;65.726
09.01.2023 13:00;66.387
09.01.2023 13:15;67.077
09.01.2023 13:30;66.765
09.01.2023 13:45;66.110
09.01.2023 14:00;66.088
09.01.2023 14:15;66.408
09.01.2023 14:30;66.884
09.01.2023 14:45;67.578
09.01.2023 15:00;67.495
09.01.2023 15:15;67.792
09.01.2023 15:30;66.316
09.01.2023 15:45;65.587
09.01.2023 16:00;65.150
09.01.2023 16:15;65.941
09.01.2023 16:30;66.103
09.01.2023 16:45;66.784
09.01.2023 17:00;67.345
09.01.2023 17:15;66.840
09.01.2023 17:30;64.197
09.01.2023 17:45;63.430
09.01.2023 18:00;60.796
09.01.2023 18:15;58.752
09.01.2023 18:30;58.810
09.01.2023 18:45;58.886
09.01.2023 19:00;54.520
09.01.2023 19:15;49.366
09.01.2023 19:30;49.125
09.01.2023 19:45;46.105
09.01.2023 20:00;46.538
09.01.2023 20:15;40.410
09.01.2023 20:30;34.377
09.01.2023 20:45;30752,4
09.01.2023 21:00;27964,8
09.01.2023 21:15;33469,6
09.01.2023 21:30;31569,6
09.01.2023 21:45;29685,2
09.01.2023 22:00;23673,6
09.01.2023 22:15;21617,6
09.01.2023 22:30;24645,2
09.01.2023 22:45;24416,8
09.01.2023 23:00;25034
09.01.2023 23:15;21217,2
09.01.2023 23:30;18680,4
09.01.2023 23:45;18.503
10.01.2023 00:00;16.955
10.01.2023 00:15;15.308
10.01.2023 00:30;18386,8
10.01.2023 00:45;21478,8
10.01.2023 01:00;21.648
10.01.2023 01:15;22.848
10.01.2023 01:30;15227,6
10.01.2023 01:45;13180,8
10.01.2023 02:00;11553,6
10.01.2023 02:15;13027,2
10.01.2023 02:30;10.258
10.01.2023 02:45;9.725
10.01.2023 03:00;10.382
10.01.2023 03:15;10.805
10.01.2023 03:30;14.645
10.01.2023 03:45;17.006
10.01.2023 04:00;15.322
10.01.2023 04:15;19.996
10.01.2023 04:30;17611,2
10.01.2023 04:45;13870
10.01.2023 05:00;12.128
10.01.2023 05:15;10.955
10.01.2023 05:30;13.916
10.01.2023 05:45;16.601
10.01.2023 06:00;18.193
10.01.2023 06:15;18.580
10.01.2023 06:30;23.723
10.01.2023 06:45;29.858
10.01.2023 07:00;33.670
10.01.2023 07:15;38.316
10.01.2023 07:30;40373,2
10.01.2023 07:45;40590,8
10.01.2023 08:00;41191,2
10.01.2023 08:15;35763,2
10.01.2023 08:30;34430
10.01.2023 08:45;30975,6
10.01.2023 09:00;36224,4
10.01.2023 09:15;46708,4
10.01.2023 09:30;43.225
10.01.2023 09:45;38224
10.01.2023 10:00;43524
10.01.2023 10:15;44747,6
10.01.2023 10:30;44994
10.01.2023 10:45;46668
10.01.2023 11:00;43967,2
10.01.2023 11:15;36704,8
10.01.2023 11:30;36686,4
10.01.2023 11:45;39601,6
10.01.2023 12:00;41849,2
10.01.2023 12:15;39113,6
10.01.2023 12:30;48061,2
10.01.2023 12:45;52444,8
10.01.2023 13:00;52253,6
10.01.2023 13:15;50030
10.01.2023 13:30;45744,8
10.01.2023 13:45;44837,6
10.01.2023 14:00;43332
10.01.2023 14:15;47106,8
10.01.2023 14:30;46514
10.01.2023 14:45;47387,2
10.01.2023 15:00;44698
10.01.2023 15:15;41658
10.01.2023 15:30;39108,8
10.01.2023 15:45;30788,8
10.01.2023 16:00;27651,6
10.01.2023 16:15;27635,6
10.01.2023 16:30;27991,2
10.01.2023 16:45;27482,4
10.01.2023 17:00;33466
10.01.2023 17:15;27541,2
10.01.2023 17:30;26.789
10.01.2023 17:45;26.792
10.01.2023 18:00;25.070
10.01.2023 18:15;22.349
10.01.2023 18:30;20645,2
10.01.2023 18:45;23584,8
10.01.2023 19:00;21802,4
10.01.2023 19:15;19.158
10.01.2023 19:30;14.696
10.01.2023 19:45;13387,2
10.01.2023 20:00;13708,8
10.01.2023 20:15;12955,2
10.01.2023 20:30;12480
10.01.2023 20:45;12811,2
10.01.2023 21:00;12460,8
10.01.2023 21:15;14616
10.01.2023 21:30;17092,8
10.01.2023 21:45;17380,8
10.01.2023 22:00;17553,6
10.01.2023 22:15;17140,8